Regional Weather Roundup
Issued by NWS

Home | Current Version | Previous Version | Text Only | Print | Product List | Glossary On
Versions: 1 2 3 4 5 6 7 8 9 10 11 12 13 14 15 16 17 18 19 20 21 22 23 24 25 26 27 28 29 30 31 32 33 34 35 36 37 38 39 40 41 42 43 44 45 46 47 48 49 50
000
ASUS43 KMPX 262310
RWRMN
WEATHER ROUNDUP FOR MINNESOTA
NATIONAL WEATHER SERVICE TWIN CITIES/CHANHASSEN MN
500 PM CST SUN FEB 26 2017


NOTE: "FAIR" INDICATES FEW OR NO CLOUDS BELOW 12,000 FEET WITH NO
SIGNIFICANT WEATHER AND/OR OBSTRUCTIONS TO VISIBILITY. N/A MEANS
CURRENT SKY AND/OR WEATHER CONDITIONS ARE NOT AVAILABLE.

MNZ060>063-068>070-270000-
   Twin Cities Metro

CITY           SKY/WX    TMP DP  RH WIND       PRES   REMARKS
TWIN CITIES    CLEAR     34  12  40 NW14      29.87R WCI  25
ST PAUL        CLEAR     34  10  37 W14       29.88R WCI  25
CRYSTAL        CLEAR     33   8  35 NW15      29.86R WCI  23
BLAINE         CLEAR     36   9  32 W12G17    29.86R
LAKEVILLE      CLEAR     34  19  55 W14       29.87R WCI  24
EDEN PRAIRIE   CLEAR     34  13  41 W13       29.86R WCI  25
SOUTH ST PAUL  CLEAR     35  10  36 W12       29.86R WCI  27
LAKE ELMO      FAIR      34  12  40 W13G18    29.87R WCI  25
$$
MNZ001>005-007-008-013>017-022>024-027-028-270000-
   Northwest Minnesota

CITY           SKY/WX    TMP DP  RH WIND       PRES   REMARKS
BEMIDJI        CLEAR     19   5  53 W9        29.83R WCI   8
HALLOCK        CLEAR     19  10  68 SW9       29.84R WCI   9
ROSEAU         CLEAR     16   5  62 W10       29.82S WCI   3
WARROAD        CLEAR     16   5  62 W14       29.82R WCI   1
THIEF RVR FALL CLEAR     15   7  70 SW10      29.86S WCI   2
CROOKSTON      CLEAR     18  10  73 W9        29.89R WCI   6
FOSSTON        CLEAR     19   5  53 SW8       29.86R WCI   9
DETROIT LAKES  CLEAR     19  12  73 NW3       29.87R
MOORHEAD       PTSUNNY   18   9  68 CALM      29.91R
PARK RAPIDS    CLEAR     21   4  47 W8        29.83R WCI  11
MAHNOMEN       FAIR      18   8  64 W8        29.87R WCI   8
$$
MNZ006-009>011-018-025>026-270000-
   North Central Minnesota

CITY           SKY/WX    TMP DP  RH WIND       PRES   REMARKS
BAUDETTE       CLEAR     19   0  43 W10       29.79R WCI   7
FLAG ISLAND    CLEAR     19   0  42 W14       29.77R WCI   6
INTL FALLS     CLEAR     19   0  43 W7        29.79R WCI  10
WASKISH        CLEAR     18   7  62 SW12      29.83R WCI   5
BIG FORK       CLEAR     21   0  39 W5        29.81R WCI  15
LONGVILLE      CLEAR     21   0  39 W5        29.84R WCI  15
GRAND RAPIDS   CLEAR     22   0  38 NW10      29.84R WCI  11
CRANE LAKE     CLEAR     18  -2  41 NW5       29.82R WCI  11
ORR            CLEAR     19  -4  35 CALM      29.77R
COOK           CLEAR     19   0  42 W9        29.80R WCI   9
WALKER         FAIR      22   0  37 W6        29.83R WCI  14
$$
MNZ012-019>021-037-270000-
   Northeast Minnesota

CITY           SKY/WX    TMP DP  RH WIND       PRES   REMARKS
DULUTH         CLEAR     21   0  39 NW14      29.81R WCI   8
ELY            CLEAR     18  -2  41 W13       29.77R WCI   4
HIBBING        CLEAR     20  -2  38 NW10      29.80R WCI   9
EVELETH        CLEAR     20  -8  28 W10       29.81R WCI   9
DULUTH HARBOR  CLEAR     23   5  46 CALM      29.87R
TWO HARBORS    CLEAR     25   7  46 W6G16     29.80R WCI  18
SILVER BAY     CLEAR     23   0  36 W6        29.79R WCI  16
GRAND MARAIS     N/A     22   3  44 W8        29.81R WCI  12
G MARAIS ARPRT CLEAR     12  -4  48 W12G17    29.72R WCI  -2
$$
MNZ029>031-032-039>041-046>048-054>057-064-270000-
   West Central Minnesota

CITY           SKY/WX    TMP DP  RH WIND       PRES   REMARKS
FERGUS FALLS   MOSUNNY   16   9  73 CALM      29.93S
WHEATON        CLOUDY    21  14  73 N6        29.92R WCI  14
MORRIS         CLOUDY    21  14  73 N9        29.88F WCI  11
ALEXANDRIA     CLOUDY    21   9  59 NW6       29.87R WCI  13
ELBOW LAKE     CLOUDY    15   8  71 NW3       29.90R
WADENA         CLEAR     18   7  62 W7        29.86R WCI   8
GLENWOOD       CLOUDY    25  10  54 NW9       29.87R WCI  15
APPLETON       SUNNY     28  16  59 N9        29.88R WCI  20
BENSON         CLOUDY    28  10  47 N3        29.90S
ORTONVILLE     SUNNY     27  14  59 CALM      29.87R
MADISON        SUNNY     32  19  59 N5        29.87S WCI  27
WILLMAR        FAIR      28  18  64 NW7       29.89S WCI  21
$$
MNZ033>034-036-042>043-049>051-058-059-270000-
   Central Minnesota

CITY           SKY/WX    TMP DP  RH WIND       PRES   REMARKS
ST CLOUD       CLEAR     30  11  45 NW9       29.86R WCI  22
SAUK CENTRE    FAIR      26  10  51 W12       29.87R WCI  15
PAYNESVILLE    CLEAR     28  12  51 W9        29.88R WCI  20
AITKIN         CLEAR     25  -9  22 NW3       29.84R
PINE RIVER     CLEAR     25   5  42 SW7       29.88R WCI  17
BRAINERD       CLEAR     23   3  42 W5        29.85R WCI  17
STAPLES        CLEAR     18   7  62 W8        29.86R WCI   7
LONG PRAIRIE   FAIR      27   5  39 W7        29.87R WCI  19
LITTLE FALLS   CLEAR     28   3  34 W7        29.87R WCI  21
LITCHFIELD     PTCLDY    30  14  51 W10       29.88R WCI  21
BUFFALO        CLEAR     32  13  45 W12       29.88R WCI  23
MAPLE LAKE     CLEAR     32  13  45 W7        29.88R WCI  26
HUTCHINSON     CLEAR     32  20  61 W14       29.89R WCI  22
$$
MNZ037-044-045-052-053-270000-
   East Central Minnesota

CITY           SKY/WX    TMP DP  RH WIND       PRES   REMARKS
PRINCETON      CLEAR     32  10  40 W8        29.87R WCI  25
MORA           CLEAR     27   1  33 N6        29.88R WCI  20
CAMBRIDGE      PTCLDY    32  16  51 W7        29.85R WCI  26
RUSH CITY      CLEAR     28   9  43 NW6       29.87R WCI  22
MOOSE LAKE     CLEAR     27   3  36 NW5       29.84R WCI  21
HINCKLEY       FAIR      28   5  37 NW7       29.86R WCI  21
CLOQUET        CLEAR     21  -2  35 NW7       29.83R WCI  13
MCGREGOR       CLEAR     25   3  39 W6        29.85R WCI  18
$$
MNZ071>073-080-081-089-090-097-098-270000-
   Southwest Minnesota

CITY           SKY/WX    TMP DP  RH WIND       PRES   REMARKS
MONTEVIDEO     SUNNY     30  18  59 E6        29.89S WCI  24
GRANITE FALLS  SUNNY     33  18  53 N7        29.89S WCI  26
CANBY          SUNNY     33  22  63 CALM      29.87R
MARSHALL       MOSUNNY   33  21  61 NE8       29.86R WCI  26
REDWOOD FALLS  SUNNY     34  13  41 NW8       29.88R WCI  27
OLIVIA         SUNNY     32  21  64 NW8       29.87S WCI  25
PIPESTONE      SUNNY     36  21  55 W13       29.84R
WINDOM         CLOUDY    37  28  70 SW14      29.86R
WORTHINGTON    SUNNY     34  25  69 SW16      29.88R WCI  24
JACKSON        SUNNY     34  27  75 SW12      29.88R WCI  25
TRACY          CLOUDY    35  26  71 NE6       29.86R WCI  30
SLAYTON        MOSUNNY   35  27  72 SW15      29.85S WCI  26
$$
MNZ065>067-074>077-082>085-091>093-270000-
   South Central Minnesota

CITY           SKY/WX    TMP DP  RH WIND       PRES   REMARKS
MANKATO          N/A     34  22  61 NW10      29.88R WCI  26
NEW ULM        CLEAR     36  18  48 NW7       29.88R
ST JAMES       MOSUNNY   36  27  69 CALM      29.89R
FAIRMONT       CLOUDY    35  25  66 SW12      29.90R WCI  27
GLENCOE        CLEAR     33  22  65 W10       29.88R WCI  24
FARIBAULT      CLEAR     34  19  55 W10G16    29.88R WCI  26
OWATONNA       CLEAR     34  23  64 W7        29.88R WCI  28
WASECA         CLEAR     32  23  69 SW8       29.89R WCI  25
ALBERT LEA     CLEAR     30  25  80 SW6       29.90R WCI  24
$$
MNZ078>079-086>088-094>096-270000-
   Southeast Minnesota

CITY           SKY/WX    TMP DP  RH WIND       PRES   REMARKS
ROCHESTER      CLEAR     27  23  85 SW14      29.88R WCI  16
RED WING       CLEAR     36  18  48 W12G21    29.86R
STANTON        CLEAR     34  19  52 W12G21    29.86R WCI  26
WINONA         CLEAR     34  23  64 W12       29.90R WCI  25
AUSTIN         CLEAR     28  23  80 SW10G16   29.90R WCI  19
PRESTON        CLEAR     29  22  74 W9        29.90R WCI  21
$$
ABBREVIATIONS USED IN REMARKS
   TC - TEMPERATURES IN CELSIUS
  WCI - WIND CHILL INDEX
   HX - HEAT INDEX
  VSB - VISIBILITY
$$



USA.gov is the U.S. government's official web portal to all federal, state and local government web resources and services.